Theta_e
314 312 312 313 313 313 312 312 313 314 314 313 313 314 314 314 316 316 317 315 314 314 317 319 320 321 320 318 318 319 329 327 328 331 339 353 351 350 350 338 348 349 346 346
313 312 314 315 313 313 313 313 314 314 314 314 314 314 314 314 315 316 317 317 315 315 317 318 320 321 321 320 320 322 332 331 325 327 340 349 348 351 344 337 339 350 347 346
314 314 315 315 315 316 314 314 314 315 316 315 315 315 314 315 315 316 317 319 317 315 316 318 318 321 322 322 321 324 326 323 322 324 330 346 347 348 350 342 345 350 347 346
314 314 315 315 316 316 315 315 316 317 317 317 315 317 315 315 316 319 319 317 317 319 319 318 321 319 323 321 322 326 324 322 321 321 328 335 346 346 347 349 349 346 348 346
315 315 315 316 316 316 315 315 316 316 316 315 317 317 318 319 321 323 322 322 322 318 316 316 316 321 323 322 320 326 325 322 321 323 329 331 335 340 343 348 347 345 343 346
315 316 316 316 317 316 316 315 315 314 314 316 316 324 321 323 323 322 323 322 321 319 316 316 318 319 323 323 322 322 327 327 326 326 333 339 341 346 349 347 345 347 345 341
318 316 316 317 317 316 315 313 314 317 317 319 324 322 322 322 323 322 322 322 321 320 317 317 317 315 320 322 321 320 323 328 325 328 337 342 341 342 347 350 346 347 347 346
316 319 317 317 316 315 316 315 314 320 322 321 321 321 321 323 323 323 322 320 320 319 317 319 319 319 322 322 322 324 326 330 332 333 335 340 340 339 343 348 347 345 346 344
316 318 316 316 316 315 316 315 314 318 320 321 320 318 321 323 324 322 321 321 321 320 320 319 318 318 320 320 323 322 325 324 324 325 325 339 341 340 339 346 347 346 345 344
316 318 316 316 316 316 315 315 318 320 327 324 319 319 325 325 324 323 324 322 321 320 320 317 317 318 320 320 321 321 321 325 325 324 324 326 340 339 337 342 345 343 341 339
316 316 317 316 316 316 315 314 315 320 322 326 322 319 323 323 325 324 321 320 321 320 319 317 318 318 319 320 320 320 322 322 325 326 324 326 328 339 339 339 341 339 335 330
315 315 317 317 314 314 313 318 319 322 324 324 324 326 322 321 322 322 321 320 319 318 317 317 317 316 317 317 318 320 321 323 324 324 325 326 326 338 336 338 341 340 336 334
317 317 318 317 315 314 314 314 314 315 317 319 323 319 316 317 318 318 319 319 319 318 318 317 315 314 316 317 318 319 320 319 321 325 324 326 328 335 335 336 339 334 328 324
317 316 319 320 318 316 317 316 315 313 315 316 317 317 316 318 318 318 317 318 317 317 316 316 316 314 315 316 316 316 317 317 319 325 324 330 332 333 334 335 332 326 322 320
319 317 318 317 317 318 318 317 315 312 313 317 317 317 318 319 317 317 317 315 315 315 316 315 316 313 314 314 315 315 316 319 319 321 329 329 329 330 330 329 325 322 320 319
316 312 318 320 319 317 317 316 314 315 317 319 322 323 320 319 315 315 315 315 314 314 314 313 313 313 314 313 314 315 314 315 319 322 327 329 325 327 324 323 322 319 317 316
313 315 314 318 316 316 315 315 318 321 320 320 321 318 316 315 315 313 313 313 313 313 313 312 311 312 312 312 314 313 313 314 321 323 326 326 325 323 318 315 312 310 309 311
311 312 315 318 318 318 314 318 319 319 318 317 317 315 314 313 311 310 310 311 312 311 311 311 311 312 312 311 311 311 311 313 319 324 324 326 321 313 310 308 307 306 306 306
318 315 316 317 317 317 316 319 319 318 316 316 314 313 312 312 311 309 308 310 308 308 308 309 310 310 310 309 309 309 309 313 318 323 317 315 311 309 308 306 305 304 304 304
318 313 310 316 320 320 316 319 317 316 317 315 314 313 312 311 312 309 308 307 307 306 307 308 309 310 309 309 309 308 309 314 319 320 314 310 308 306 305 304 303 302 302 301
315 315 317 317 320 317 319 317 315 312 313 314 313 312 311 310 309 308 307 306 305 305 305 306 306 306 307 307 308 308 312 314 320 313 309 307 306 304 302 301 301 301 299 298
316 316 316 317 318 317 316 315 317 316 312 312 310 309 309 308 306 306 305 305 305 305 305 305 305 306 306 307 308 310 314 317 313 309 307 306 304 302 300 299 297 297 297 298
312 313 316 317 314 313 314 314 314 311 310 310 309 308 306 306 305 305 306 306 306 307 307 306 305 305 307 307 308 312 315 315 310 308 306 304 302 300 299 298 296 296 296 297
313 312 310 314 314 314 314 312 311 310 309 307 306 305 305 305 305 306 307 306 307 308 309 308 305 306 307 308 310 313 316 310 308 306 304 303 301 299 298 297 297 296 296 296
310 310 313 315 314 314 313 312 310 308 307 306 305 305 305 306 307 306 306 306 307 311 311 306 305 306 308 310 314 315 309 307 306 305 303 302 300 298 297 297 296 296 295 295
310 313 316 315 314 314 312 309 307 307 306 305 305 305 306 307 305 304 305 305 309 307 306 306 306 307 312 315 311 308 307 306 304 302 300 298 297 296 296 295 296 297 298 299
Wind_Speed
7 5 8 11 5 7 9 11 16 16 15 11 14 18 20 15 7 14 17 11 10 10 14 25 32 32 28 27 24 18 25 25 20 16 14 18 25 33 30 18 28 42 42 39
7 5 11 18 10 9 9 10 14 15 14 15 18 22 20 13 13 17 13 17 16 8 8 9 20 26 24 26 23 16 27 26 22 17 14 15 21 23 39 36 49 45 45 40
7 12 15 12 10 14 9 8 13 15 18 18 17 17 17 14 17 16 17 13 9 11 10 10 10 20 25 23 20 19 25 21 17 16 18 14 18 23 26 38 33 33 43 35
6 7 18 14 12 11 7 10 15 18 13 12 7 18 17 14 18 12 18 6 10 6 6 8 7 8 22 27 23 23 25 22 19 17 18 19 18 21 25 30 24 12 25 26
10 12 14 15 12 4 7 9 15 19 17 13 11 6 13 14 10 16 14 12 17 6 9 9 9 2 22 25 24 25 28 27 25 21 21 20 19 24 28 26 25 24 27 29
12 7 6 17 6 1 7 10 17 9 7 7 7 1 3 3 4 10 7 7 7 7 9 8 7 10 2 21 25 22 24 29 25 22 21 23 23 22 22 22 19 23 30 29
8 6 11 8 11 10 12 7 5 5 4 7 5 4 8 14 13 11 13 10 8 9 9 5 7 6 12 3 18 20 20 28 29 28 26 23 22 23 24 22 16 23 28 31
3 6 6 16 10 7 4 1 3 6 10 16 9 7 2 5 12 15 20 15 11 6 7 10 9 9 18 22 23 25 27 4 22 27 24 21 21 21 21 21 18 19 30 23
4 5 16 17 13 7 7 3 8 7 6 4 5 8 3 12 11 8 14 20 15 20 11 9 9 13 19 24 17 18 15 14 15 8 14 18 20 22 21 18 14 14 16 23
3 10 5 12 14 10 9 6 8 2 4 5 5 6 3 8 13 14 16 15 16 16 15 12 8 10 14 18 22 18 16 14 7 11 13 10 20 20 18 16 12 5 15 28
4 5 5 7 3 15 12 11 7 3 5 4 4 4 6 6 6 6 0 5 9 10 11 12 14 13 19 20 23 25 26 18 18 10 13 16 13 15 14 14 10 11 24 27
6 4 7 12 14 18 13 3 4 3 5 3 3 5 5 5 9 8 11 8 4 3 7 8 5 12 16 18 22 22 25 28 23 14 17 17 17 14 11 8 5 22 25 23
4 3 9 8 4 7 5 15 6 9 4 11 8 6 13 16 10 5 7 3 4 6 10 5 6 5 10 14 14 18 22 25 27 19 17 25 27 8 9 6 16 22 25 24
4 5 8 14 18 13 18 19 14 7 8 16 16 23 18 9 13 7 4 5 7 6 9 8 6 2 5 8 15 20 23 26 27 27 16 17 10 9 8 11 18 25 31 30
2 5 10 13 18 17 22 24 19 17 18 16 24 23 12 14 12 8 2 5 6 7 7 6 3 4 6 9 14 20 23 28 27 28 13 12 16 16 18 21 29 30 36 35
1 4 4 11 13 15 23 22 23 19 16 12 10 14 8 13 9 12 8 5 7 6 5 6 5 7 4 8 15 18 23 28 31 26 10 15 17 25 28 35 34 35 38 44
8 8 4 24 10 13 13 11 6 9 12 2 1 6 3 10 13 11 12 11 10 8 6 7 7 5 7 6 10 17 23 27 26 27 5 19 27 27 26 37 34 34 34 45
5 1 3 7 5 5 9 6 3 8 10 10 7 7 7 8 8 11 13 14 15 12 10 5 3 3 3 4 10 17 21 24 23 10 12 23 30 33 33 36 37 36 38 45
5 5 2 2 3 7 15 1 3 4 14 3 5 10 11 10 12 16 12 6 6 7 6 4 3 3 5 6 10 16 22 19 20 14 20 27 32 35 36 35 34 33 40 41
5 7 3 2 3 5 3 3 9 8 8 4 5 9 14 15 14 15 7 11 16 20 24 16 14 13 9 10 9 17 16 15 16 24 27 27 31 37 36 34 34 35 36 35
6 4 6 7 6 6 4 11 8 1 5 9 7 13 14 13 14 20 19 21 20 22 24 27 26 23 20 18 17 16 12 9 13 31 35 32 35 38 38 39 38 38 31 31
4 4 3 4 3 6 11 18 5 5 5 9 13 11 15 13 20 19 19 20 20 19 23 27 23 19 19 17 18 16 8 2 33 36 36 34 34 37 39 39 38 35 35 38
4 1 3 5 5 15 14 4 4 4 10 9 11 11 14 20 20 21 21 20 21 20 21 28 24 20 19 20 21 12 6 29 35 38 36 35 34 36 38 44 38 32 31 33
5 8 3 12 3 9 8 9 8 11 8 11 9 16 17 19 21 22 17 19 20 21 18 23 23 20 19 21 19 15 23 35 38 37 35 34 38 36 33 33 33 30 29 31
10 8 8 14 10 14 11 10 11 10 12 13 16 16 17 19 18 16 17 20 19 14 10 27 26 22 19 21 19 29 38 41 39 37 34 34 36 35 35 33 28 27 25 26
4 4 2 4 13 7 10 13 10 11 14 15 16 17 17 11 13 14 15 16 10 7 20 22 23 22 18 26 34 38 41 45 42 36 32 35 35 34 33 39 37 22 21 24
Wind_Direction
296 330 262 266 311 328 329 323 309 303 304 306 297 283 281 276 281 281 276 267 254 235 225 224 236 236 225 228 231 227 206 209 218 226 237 242 250 245 246 273 261 207 202 205
340 297 315 322 342 329 312 305 306 306 327 326 314 304 298 284 270 264 261 271 256 241 246 227 225 226 217 216 210 208 194 198 213 229 235 246 257 259 235 234 238 214 203 204
319 288 295 338 333 317 309 312 328 317 323 309 293 293 300 306 301 279 263 261 251 235 238 232 219 209 204 188 189 199 195 207 224 237 241 253 258 259 242 225 234 210 201 202
287 325 328 315 308 302 333 332 315 302 301 293 317 295 288 284 288 310 266 328 298 241 236 199 191 205 193 191 184 188 196 206 223 238 232 240 238 255 262 254 252 254 201 206
263 288 292 287 280 26 302 314 291 291 287 305 316 260 299 303 305 339 337 64 339 0 74 55 25 284 196 190 188 187 196 206 222 229 227 235 247 255 268 273 275 220 206 212
272 269 308 297 295 334 305 322 322 304 312 297 283 120 305 314 292 311 323 19 331 319 78 59 23 13 29 188 185 192 204 209 214 225 232 224 233 246 260 273 263 214 208 203
283 288 290 35 0 350 344 332 320 330 346 264 345 319 254 317 285 303 319 293 137 255 76 32 7 349 28 84 199 208 207 210 214 216 222 225 233 247 260 268 265 231 214 200
324 331 352 358 335 285 290 79 194 282 301 292 300 258 324 49 44 26 349 309 345 32 65 54 42 48 50 43 42 48 47 328 225 214 221 232 239 255 264 269 284 244 221 208
335 250 332 333 314 337 299 250 249 285 300 297 237 262 328 21 30 29 347 359 13 16 357 45 41 52 34 24 28 33 30 21 25 15 2 253 250 257 268 273 287 266 202 190
316 307 273 305 331 293 280 293 312 291 273 263 254 319 210 1 2 340 7 353 359 7 358 348 14 19 23 15 14 5 8 3 339 349 318 335 253 257 286 291 299 225 167 164
323 213 275 339 285 300 315 302 306 282 154 274 292 268 169 171 148 262 342 292 314 342 344 350 347 24 21 15 12 4 3 1 356 315 330 325 303 268 286 300 305 170 154 132
219 249 284 275 282 272 264 135 117 293 307 311 292 267 227 179 158 206 249 220 265 249 301 324 334 357 7 0 356 355 357 354 345 338 343 327 323 261 294 294 240 179 172 177
225 229 299 303 259 356 344 309 315 303 269 268 278 266 328 313 349 325 286 262 248 256 267 256 300 351 344 335 335 348 351 339 342 329 328 330 330 256 290 275 174 151 142 140
147 206 227 262 270 288 293 286 288 260 278 288 267 284 292 308 319 330 360 295 288 283 266 251 264 211 317 357 359 360 342 331 333 332 305 344 46 54 70 124 126 124 128 127
221 231 239 252 266 275 276 278 284 279 271 265 287 279 287 316 293 273 238 288 303 279 294 312 354 11 356 360 359 357 341 340 327 331 336 90 89 100 119 119 111 106 114 115
313 276 308 273 269 282 286 283 281 287 292 292 296 302 313 278 353 1 325 312 300 279 296 318 342 343 22 17 349 347 328 323 331 323 317 126 118 120 117 120 123 118 115 117
243 250 210 269 273 293 289 278 288 260 287 37 149 224 354 351 343 334 323 320 312 308 303 307 306 349 55 24 346 331 317 316 325 328 248 131 120 108 110 115 113 107 105 114
223 195 260 304 301 233 241 42 65 340 311 337 44 0 332 302 299 300 299 289 286 300 299 310 50 16 80 5 330 320 311 311 323 345 107 126 124 114 109 106 107 108 106 105
166 110 204 247 219 280 293 26 0 308 289 94 349 326 319 317 310 296 284 299 330 316 315 298 298 297 300 301 303 312 303 315 321 138 116 124 119 115 112 109 111 113 111 108
60 107 125 238 253 268 341 111 274 250 271 350 321 321 318 316 301 299 318 312 301 297 292 290 279 240 236 261 279 296 291 304 333 128 119 118 116 115 113 114 112 111 110 111
319 298 225 224 251 272 61 347 290 60 274 332 338 307 303 301 284 297 301 288 278 272 270 270 264 257 258 267 262 260 263 296 140 119 119 118 116 116 117 115 114 115 112 108
298 304 322 328 270 268 3 353 355 270 310 307 307 304 302 295 297 293 290 286 282 272 265 253 248 244 239 225 230 235 204 182 126 121 119 119 119 116 116 112 108 111 113 106
315 13 257 221 250 305 310 304 308 354 312 309 311 315 306 302 300 296 293 294 288 276 256 242 225 217 212 209 218 217 158 143 127 119 120 118 116 116 118 117 115 111 111 110
292 325 281 315 251 293 310 321 349 327 320 320 317 311 305 300 297 297 308 300 294 286 264 213 182 189 193 202 203 182 147 134 124 120 119 121 116 113 111 112 113 114 117 120
278 302 277 282 302 316 293 330 321 330 324 319 312 306 298 295 299 314 308 305 301 297 114 146 159 174 179 179 162 139 134 126 119 119 120 119 117 115 113 110 115 131 133 126
222 249 306 285 304 286 304 317 336 326 322 313 308 307 304 315 317 316 307 306 323 66 125 138 149 156 157 135 128 131 130 126 123 119 121 119 118 113 112 117 122 127 123 127